Olympia, WA

6:05 AM PST on January 20, 2018 (GMT -0800)
Olympia

Weather History for KOLM - December, 2013

Change the Weather History Date:

Tuesday, December 3, 2013

  Actual Average Record
Temperature  
Mean Temperature 31 °F 40 °F  
Max Temperature 41 °F 46 °F 59 °F (1982)
Min Temperature 21 °F 33 °F 17 °F (1994)
Degree Days  
Heating Degree Days 34 26  
Month to date heating degree days 78 76  
Since 1 July heating degree days 1474 1521  
Cooling Degree Days 0 0  
Month to date cooling degree days 0 0  
Year to date cooling degree days 147 106  
Moisture  
Dew Point 25 °F    
Average Humidity 73    
Maximum Humidity 100    
Minimum Humidity 45    
Precipitation  
Precipitation 0.00 in 0.28 in 3.19 in (2007)
Month to date precipitation 0.94 0.85  
Year to date precipitation 40.38 43.39  
Sea Level Pressure  
Sea Level Pressure 30.21 in    
Wind  
Wind Speed 3 mph (NE)    
Max Wind Speed 16 mph    
Max Gust Speed 22 mph    
Visibility 6 miles    
Events Fog    
T = Trace of Precipitation, MM = Missing Value Source: NWS Daily Summary

Daily Weather History Graph

Daily Weather History Graph

Search for Another Location

Airport or City:

Trip Planner

Search our weather history database for the weather conditions in past years. The results will help you decide how hot, cold, wet, or windy it might be!

Date:

Astronomy

Dec. 03, 2013 Rise Set
Actual Time 7:39 AM PST 4:23 PM PST
Civil Twilight 7:04 AM PST 4:58 PM PST
Nautical Twilight 6:26 AM PST 5:36 PM PST
Astronomical Twilight 5:49 AM PST 6:13 PM PST
Moon 8:12 AM PST (12/3) 5:34 PM PST (12/3)
Length of Visible Light 9h 54m
Length of Day
8h 44m
New Moon, 1% of the Moon is Illuminated
Dec 3
New Moon
Dec 9
First Quarter
Dec 17
Full
Dec 25
Last Quarter
Jan 1
New

Hourly Weather History & Observations

Time (PST) Temp. Windchill Dew Point Humidity Pressure Visibility Wind Dir Wind Speed Gust Speed Precip Events Conditions
12:27 AM 32.0 °F - 32.0 °F 100% 30.07 in 0.2 mi Calm Calm - N/A Fog Fog
12:54 AM 32.0 °F - 32.0 °F 100% 30.09 in 0.2 mi Calm Calm - N/A Fog Fog
1:54 AM 32.0 °F - 32.0 °F 100% 30.10 in 0.2 mi Calm Calm - N/A Fog Fog
2:34 AM 30.9 °F 27.5 °F 30.0 °F 96% 30.11 in 0.5 mi WNW 3.5 mph - N/A Fog Light Freezing Fog
2:54 AM 30.9 °F - 30.0 °F 96% 30.12 in 0.2 mi Calm Calm - N/A Fog Light Freezing Fog
3:02 AM 30.0 °F 25.2 °F 30.0 °F 100% 30.12 in 0.5 mi WNW 4.6 mph - N/A Fog Light Freezing Fog
3:17 AM 30.0 °F - 30.0 °F 100% 30.12 in 0.2 mi Calm Calm - N/A Fog Light Freezing Fog
3:49 AM 28.4 °F - 28.4 °F 100% 30.12 in 0.5 mi Calm Calm - N/A Fog Light Freezing Fog
3:54 AM 28.9 °F - 28.0 °F 96% 30.13 in 0.5 mi Calm Calm - N/A Fog Light Freezing Fog
4:07 AM 28.0 °F - 26.1 °F 92% 30.13 in 0.2 mi Calm Calm - N/A Fog Light Freezing Fog
4:45 AM 28.0 °F - 27.0 °F 96% 30.14 in 0.2 mi Calm Calm - N/A Fog Light Freezing Fog
4:54 AM 27.0 °F - 27.0 °F 100% 30.15 in 0.5 mi Calm Calm - N/A Fog Light Freezing Fog
5:03 AM 28.0 °F - 27.0 °F 96% 30.14 in 1.5 mi Calm Calm - N/A   Overcast
5:07 AM 28.0 °F - 27.0 °F 96% 30.14 in 3.0 mi Calm Calm - N/A   Overcast
5:54 AM 28.0 °F - 27.0 °F 96% 30.17 in 10.0 mi Calm Calm - N/A   Overcast
6:54 AM 30.0 °F - 28.0 °F 92% 30.19 in 10.0 mi Calm Calm - N/A   Overcast
7:54 AM 30.0 °F 25.2 °F 25.0 °F 82% 30.20 in 10.0 mi NE 4.6 mph - N/A   Partly Cloudy
8:54 AM 32.0 °F 28.7 °F 25.0 °F 75% 30.23 in 10.0 mi NE 3.5 mph - N/A   Partly Cloudy
9:54 AM 35.1 °F 31.0 °F 27.0 °F 72% 30.25 in 10.0 mi ENE 4.6 mph - N/A   Scattered Clouds
10:54 AM 37.9 °F 30.5 °F 28.0 °F 68% 30.26 in 10.0 mi ENE 11.5 mph - N/A   Partly Cloudy
11:54 AM 39.9 °F 33.9 °F 24.1 °F 53% 30.25 in 10.0 mi ENE 9.2 mph - N/A   Clear
12:54 PM 41.0 °F 35.8 °F 21.9 °F 47% 30.25 in 10.0 mi ENE 8.1 mph - N/A   Partly Cloudy
1:54 PM 39.9 °F 32.9 °F 24.1 °F 53% 30.26 in 10.0 mi ENE 11.5 mph - N/A   Partly Cloudy
2:54 PM 39.9 °F 35.8 °F 23.0 °F 51% 30.26 in 10.0 mi NE 5.8 mph - N/A   Partly Cloudy
3:54 PM 37.9 °F 32.7 °F 19.9 °F 48% 30.27 in 10.0 mi ENE 6.9 mph - N/A   Clear
4:54 PM 32.0 °F 26.4 °F 21.0 °F 64% 30.28 in 10.0 mi NNE 5.8 mph - N/A   Clear
5:54 PM 34.0 °F 31.0 °F 19.0 °F 54% 30.28 in 10.0 mi NE 3.5 mph - N/A   Clear
6:54 PM 27.0 °F - 21.0 °F 78% 30.29 in 10.0 mi Calm Calm - N/A   Clear
7:54 PM 27.0 °F 23.0 °F 21.0 °F 78% 30.30 in 10.0 mi NNE 3.5 mph - N/A   Clear
8:54 PM 26.1 °F - 19.9 °F 78% 30.30 in 8.0 mi Calm Calm - N/A   Clear
9:54 PM 25.0 °F - 21.9 °F 88% 30.32 in 7.0 mi Calm Calm - N/A   Clear
10:54 PM 24.1 °F - 21.0 °F 88% 30.32 in 6.0 mi Calm Calm - N/A   Clear
11:54 PM 21.0 °F - 19.0 °F 92% 30.32 in 5.0 mi Calm Calm - N/A   Clear